Погода в Зубково

Россия / Новосибирская область     53°46′08″N   78°39′14″E
темп.,
°C
ветер,
м/с
пор.,
м/с
влажн.,
%
обл.,
%
осадки,
мм/ч
давл.,
гПа
погр.,
м
14 апреля, ср
ср1401:000зсз3695100 0.0 1038305
04:000зсз4591100 0.0 1036228
07:000з3693100 0.0 1037202
10:00+2юз4999100 0.0 1035302
13:00+4зюз5109199 0.0 1033331
16:00+8з61268100 0.0 1030351
19:00+6з6128353 0.0 1029270
22:00+3зсз41095100 0.0 1029266
15 апреля, чт
чт1501:00+2з3699100 0.1 1028129
04:00+2зсз2399100 0.0 102847
07:00+3з2399100 0.2 102843
10:00+3з3499100 0.0 102882
13:00+5з2399100 0.0 102796
16:00+10зсз248017 0.0 1026498
19:00+10ю227856 0.0 102414
22:00+8зсз238882 0.0 102320
16 апреля, пт
пт1601:00+7з339626 0.0 102222
04:00+6зюз34964 0.0 102157
07:00+5юз47945 0.0 1020106
10:00+10юз59814 0.0 1019305
13:00+15зюз79545 0.0 1018843
16:00+18з794122 0.0 10161523
19:00+16зсз584628 0.0 1015900
22:00+9с8118333 0.0 1016352
17 апреля, сб
сб1701:00+4ссв71283100 0.0 1018511
04:00+3св71281100 0.0 1018639
07:00+1св71088100 0.0 1020556
10:00+1всв687582 0.1 1020623
13:00+5всв336090 0.1 1019971
16:00+6зсз2256100 0.0 10171256
19:00+6з365280 0.0 10161482
22:00+3с366814 0.0 1017250
18 апреля, вс
вс1801:00+2юз34715 0.0 101553
04:00+1юз41073100 0.0 1015195
07:00+1зсз3786100 0.0 1015205
10:00+2ссз3464100 0.0 1016568
13:00+4з2246100 0.0 1016944
16:00+7ююз3544100 0.0 10131557
19:00+6ююз6769100 0.1 1011970
22:00+3зсз71195100 1.4 1010783